Location: Beuvrequen
(50.8014°N, 1.6652°E)
Time: 21:29:57
(UTC+00:00)

Okean 2 Rocket - Pass Details

Date: 16 October 2021
Orbit: 616 x 641 km, 82.5° (Epoch: 04 December)

Event Time Altitude Azimuth Distance (km) Brightness Sun altitude
Rises 17:54:18 0° 205° (SSW) 2,898 6.9 -9.5°
Reaches altitude 10° 17:56:35 10° 212° (SSW) 2,000 6.2 -9.9°
Maximum altitude 18:00:51 46° 286° (WNW) 855 4.3 -10.6°
Drops below altitude 10° 18:05:12 10° 360° (N) 2,031 5.7 -11.3°
Sets 18:07:32 0° 7° (N) 2,948 6.5 -11.6°
